Location: Palomar Mountain Lodge
(33.3110°N, 116.8495°W)
Time: 06:33:02
(UTC-07:00)

Cosmos 1726 Rocket - Pass Details

Date: 14 June 2018
Orbit: 604 x 629 km, 82.5° (Epoch: 17 June)

Event Time Altitude Azimuth Distance (km) Brightness Sun altitude
Rises 20:48:43 0° 352° (N) 2,918 7.7 -9.7°
Reaches altitude 10° 20:50:58 10° 351° (N) 2,007 6.9 -10.1°
Maximum altitude 20:55:25 80° 266° (W) 640 3.7 -10.8°
Drops below altitude 10° 20:59:50 10° 178° (S) 1,991 5.8 -11.6°
Enters shadow 21:00:58 - 178° (S) 2,446 6.2 -11.8°
